Starlink 32914

operational
NORAD ID: 63086 Int'l Des: 2025-037 Owner: SPXS Country: US Constellation: starlink
LEOCIRCULAR

Über Starlink 32914

Beschreibung wird geladen...

Live-Position

3D-Globus wird geladen...

Nächste Überflüge

Höhenverlauf

Altitude vs Time

uPlot chart will show altitude changes over time

Zweizeiliger Elementsatz

1 63086U 25037K 25306.45763257 .00003113 00000-0 26855-3 0 9992
2 63086 70.0005 315.2608 0003135 267.5167 92.5633 14.98337979 39547
Epoch: 2. Nov. 2025 • Age: 16 hours

Aktueller Status

Höhe 581.5 km
Geschwindigkeit 7.57 km/s
Subsatellitenpunkt -29.53°S, 143.85°W
Startdatum 23. Feb. 2025
Alter 0.6 years
Typ internet

Technische Details

Klassifizierung Payload
Masse 730.00 kg
Trockenmasse 700.00 kg
Gesamtmasse 730.00 kg
Länge 0.30 m
Durchmesser 4.10 m
Spannweite 29.00 m
Form Box + pan
Hersteller SPXS
Bus-Typ Starlink V2M
Phasenstatus In Orbit
Besitzer/Staat SPXS/US

Große Konstellationen

Loading constellations...